When you browse on this site, cookies collect data to enhance your experience and personalize the content and advertising you see.
Visit our Privacy Policy to learn more. By continuing to use the site, you agree to this use of cookies and data.

Hourly Weather Baraki Barak

Today, 4 August, Tuesday

Time Temperature Precipitation Wind Pressure Humidity
00:00 +26°C° 0 mm 1 mps 595 mmHg 38%
01:00 +26°C° 0 mm 1 mps 595 mmHg 39%
02:00 +25°C° 0 mm 1 mps 595 mmHg 40%
03:00 +24°C° 0 mm 1 mps 594 mmHg 42%
04:00 +23°C° 0 mm 1 mps 594 mmHg 43%
05:00 +21°C° 0 mm 0 mps 594 mmHg 43%
06:00 +22°C° 0 mm 0 mps 595 mmHg 38%
07:00 +25°C° 0 mm 1 mps 595 mmHg 34%
08:00 +26°C° 0 mm 1 mps 596 mmHg 30%
09:00 +27°C° 0 mm 1 mps 596 mmHg 26%
10:00 +28°C° 0 mm 1 mps 596 mmHg 22%
11:00 +29°C° 0 mm 1 mps 596 mmHg 19%
12:00 +30°C° 0 mm 2 mps 596 mmHg 17%
13:00 +31°C° 0 mm 2 mps 596 mmHg 16%
14:00 +32°C° 0 mm 2 mps 596 mmHg 14%
15:00 +34°C° 0 mm 3 mps 596 mmHg 14%
16:00 +34°C° 0 mm 3 mps 596 mmHg 14%
17:00 +34°C° 0 mm 4 mps 596 mmHg 13%
18:00 +33°C° 0 mm 4 mps 596 mmHg 16%
19:00 +30°C° 0 mm 5 mps 596 mmHg 19%
20:00 +29°C° 0 mm 5 mps 595 mmHg 22%
21:00 +28°C° 0 mm 4 mps 596 mmHg 23%
22:00 +27°C° 0 mm 3 mps 596 mmHg 24%
23:00 +26°C° 0 mm 2 mps 596 mmHg 25%

Tomorrow, 5 August, Wednesday

Time Temperature Precipitation Wind Pressure Humidity
00:00 +25°C° 0 mm 2 mps 596 mmHg 25%
01:00 +24°C° 0 mm 1 mps 595 mmHg 25%
02:00 +23°C° 0 mm 1 mps 595 mmHg 25%
03:00 +23°C° 0 mm 1 mps 595 mmHg 27%
04:00 +23°C° 0 mm 1 mps 595 mmHg 29%
05:00 +21°C° 0 mm 2 mps 595 mmHg 31%
06:00 +23°C° 0 mm 2 mps 596 mmHg 28%
07:00 +24°C° 0 mm 1 mps 596 mmHg 26%
08:00 +24°C° 0 mm 1 mps 597 mmHg 23%
09:00 +26°C° 0 mm 1 mps 597 mmHg 22%
10:00 +27°C° 0 mm 2 mps 597 mmHg 20%
11:00 +28°C° 0 mm 2 mps 598 mmHg 19%
12:00 +30°C° 0 mm 2 mps 598 mmHg 17%
13:00 +31°C° 0 mm 2 mps 598 mmHg 16%
14:00 +32°C° 0 mm 2 mps 598 mmHg 14%
15:00 +34°C° 0 mm 2 mps 598 mmHg 13%
16:00 +34°C° 0 mm 2 mps 598 mmHg 13%
17:00 +34°C° 0 mm 3 mps 598 mmHg 12%
18:00 +33°C° 0 mm 3 mps 598 mmHg 14%
19:00 +32°C° 0 mm 4 mps 598 mmHg 17%
20:00 +29°C° 0 mm 4 mps 598 mmHg 19%
21:00 +28°C° 0 mm 3 mps 598 mmHg 20%
22:00 +27°C° 0 mm 2 mps 598 mmHg 21%
23:00 +26°C° 0 mm 1 mps 598 mmHg 22%

Day after tomorrow, 6 August, Thursday

Time Temperature Precipitation Wind Pressure Humidity
00:00 +26°C° 0 mm 1 mps 598 mmHg 23%
01:00 +25°C° 0 mm 1 mps 597 mmHg 24%
02:00 +22°C° 0 mm 0 mps 597 mmHg 25%
03:00 +22°C° 0 mm 0 mps 597 mmHg 26%
04:00 +21°C° 0 mm 0 mps 597 mmHg 27%
05:00 +21°C° 0 mm 0 mps 597 mmHg 29%
06:00 +22°C° 0 mm 0 mps 598 mmHg 26%
07:00 +23°C° 0 mm 0 mps 598 mmHg 24%
08:00 +24°C° 0 mm 0 mps 599 mmHg 22%
09:00 +26°C° 0 mm 0 mps 599 mmHg 21%
10:00 +29°C° 0 mm 1 mps 600 mmHg 21%
11:00 +31°C° 0 mm 1 mps 600 mmHg 20%
12:00 +32°C° 0 mm 1 mps 600 mmHg 17%
13:00 +34°C° 0 mm 2 mps 600 mmHg 15%
14:00 +35°C° 0 mm 2 mps 600 mmHg 13%
15:00 +36°C° 0 mm 2 mps 600 mmHg 12%
16:00 +36°C° 0 mm 2 mps 600 mmHg 12%
17:00 +36°C° 0 mm 3 mps 600 mmHg 12%
18:00 +35°C° 0 mm 2 mps 599 mmHg 15%
19:00 +32°C° 0 mm 2 mps 599 mmHg 19%
20:00 +31°C° 0 mm 2 mps 599 mmHg 22%
21:00 +30°C° 0 mm 1 mps 599 mmHg 25%
22:00 +29°C° 0 mm 1 mps 599 mmHg 27%
23:00 +26°C° 0 mm 0 mps 599 mmHg 30%

7 August, Friday

Time Temperature Precipitation Wind Pressure Humidity
00:00 +26°C° 0 mm 0 mps 599 mmHg 31%
01:00 +25°C° 0 mm 0 mps 598 mmHg 33%
02:00 +24°C° 0 mm 0 mps 598 mmHg 34%
03:00 +23°C° 0 mm 0 mps 598 mmHg 35%
04:00 +23°C° 0 mm 0 mps 597 mmHg 36%
05:00 +22°C° 0 mm 0 mps 597 mmHg 37%
06:00 +23°C° 0 mm 0 mps 598 mmHg 32%
07:00 +27°C° 0 mm 1 mps 599 mmHg 28%
08:00 +28°C° 0 mm 1 mps 600 mmHg 23%
09:00 +30°C° 0 mm 1 mps 600 mmHg 22%
10:00 +31°C° 0 mm 2 mps 601 mmHg 20%
11:00 +33°C° 0 mm 3 mps 601 mmHg 18%
12:00 +34°C° 0 mm 3 mps 601 mmHg 17%
13:00 +35°C° 0 mm 3 mps 601 mmHg 15%
14:00 +36°C° 0 mm 4 mps 601 mmHg 14%
15:00 +36°C° 0 mm 4 mps 601 mmHg 14%
16:00 +36°C° 0 mm 4 mps 600 mmHg 14%
17:00 +36°C° 0 mm 4 mps 600 mmHg 14%
18:00 +35°C° 0 mm 3 mps 600 mmHg 20%
19:00 +33°C° 0 mm 3 mps 599 mmHg 25%
20:00 +31°C° 0 mm 3 mps 599 mmHg 30%
21:00 +30°C° 0 mm 3 mps 599 mmHg 33%
22:00 +29°C° 0 mm 2 mps 599 mmHg 36%
23:00 +28°C° 0 mm 1 mps 599 mmHg 39%

8 August, Saturday

Time Temperature Precipitation Wind Pressure Humidity
00:00 +27°C° 0 mm 1 mps 599 mmHg 41%
01:00 +26°C° 0 mm 1 mps 598 mmHg 43%
02:00 +26°C° 0 mm 1 mps 598 mmHg 45%
03:00 +23°C° 0 mm 0 mps 597 mmHg 47%
04:00 +22°C° 0 mm 0 mps 597 mmHg 49%
05:00 +22°C° 0 mm 0 mps 596 mmHg 52%
06:00 +23°C° 0 mm 0 mps 597 mmHg 47%
07:00 +24°C° 0 mm 0 mps 598 mmHg 42%
08:00 +25°C° 0 mm 0 mps 598 mmHg 36%
09:00 +28°C° 0 mm 1 mps 598 mmHg 32%
10:00 +30°C° 0 mm 1 mps 599 mmHg 29%
11:00 +31°C° 0 mm 1 mps 599 mmHg 25%
12:00 +32°C° 0 mm 1 mps 599 mmHg 22%
13:00 +35°C° 0 mm 2 mps 599 mmHg 19%
14:00 +36°C° 0 mm 2 mps 599 mmHg 16%
15:00 +36°C° 0 mm 2 mps 598 mmHg 15%
16:00 +37°C° 0 mm 3 mps 598 mmHg 14%
17:00 +37°C° 0 mm 3 mps 598 mmHg 13%
18:00 +36°C° 0 mm 3 mps 598 mmHg 15%
19:00 +34°C° 0 mm 3 mps 597 mmHg 17%
20:00 +33°C° 0 mm 4 mps 597 mmHg 19%
21:00 +31°C° 0 mm 3 mps 597 mmHg 21%
22:00 +30°C° 0 mm 2 mps 597 mmHg 23%
23:00 +30°C° 0 mm 2 mps 597 mmHg 25%

9 August, Sunday

Time Temperature Precipitation Wind Pressure Humidity
00:00 +29°C° 0 mm 1 mps 597 mmHg 27%
01:00 +28°C° 0 mm 1 mps 596 mmHg 29%
02:00 +27°C° 0 mm 1 mps 596 mmHg 31%
03:00 +26°C° 0 mm 1 mps 596 mmHg 32%
04:00 +23°C° 0 mm 0 mps 595 mmHg 33%
05:00 +23°C° 0 mm 0 mps 595 mmHg 33%
06:00 +24°C° 0 mm 0 mps 595 mmHg 30%
07:00 +25°C° 0 mm 0 mps 596 mmHg 27%
08:00 +26°C° 0 mm 0 mps 597 mmHg 24%
09:00 +29°C° 0 mm 1 mps 597 mmHg 22%
10:00 +31°C° 0 mm 1 mps 597 mmHg 21%
11:00 +32°C° 0 mm 1 mps 597 mmHg 19%
12:00 +33°C° 0 mm 1 mps 597 mmHg 17%
13:00 +36°C° 0 mm 2 mps 597 mmHg 16%
14:00 +37°C° 0 mm 2 mps 597 mmHg 15%
15:00 +37°C° 0 mm 3 mps 597 mmHg 14%
16:00 +38°C° 0 mm 4 mps 597 mmHg 14%
17:00 +38°C° 0 mm 4 mps 597 mmHg 14%
18:00 +36°C° 0 mm 4 mps 597 mmHg 16%
19:00 +35°C° 0 mm 4 mps 596 mmHg 19%
20:00 +33°C° 0 mm 4 mps 596 mmHg 21%
21:00 +31°C° 0 mm 3 mps 596 mmHg 22%
22:00 +30°C° 0 mm 3 mps 596 mmHg 24%
23:00 +29°C° 0 mm 2 mps 596 mmHg 25%
Show more